Flag for U.S.A. Weather past 2 weeks in Missoula, Montana, U.S.A.

Now
44 °F

Clear.


Feels Like: 41 °F
Forecast: 34 / 60 °F
Wind: 6 mph from West

Location: Missoula International Airport

Current Time: Apr 18, 2015 at 2:16:40 AM

Latest Report: Apr 18, 2015 at 1:53 AM


Visibility: 10 mi

Pressure: 30.10 "Hg

Humidity: 58%

Dew point: 30 °F

Location of MissoulaLocation

Historic Weather in Missoula — Graph

°F

Missoula temperature yesterday

Maximum temperature yesterday: 70 °F (at 4:53 PM)
Minimum temperature yesterday: 29 °F (at 6:53 AM)
Average temperature yesterday: 50 °F

Past Weeks' High & Low Weather Summary

 TemperatureHumidityPressure
High70 °F (Apr 17, 4:53 PM)100% (Apr 12, 2:59 AM)30.45 "Hg (Apr 12, 2:59 AM)
Low21 °F (Apr 7, 6:00 AM)15% (Apr 13, 4:53 PM)29.61 "Hg (Apr 14, 2:53 AM)
Average42 °F58%30.03 "Hg
* Reported Apr 3 12:53 AM — Apr 18 12:53 AM, Missoula, Weather by CustomWeather, © 2015

Note: Actual official high and low records may vary slightly from our data, if they occured in-between our weather recording intervals... More about our weather records

Advertising

Missoula weather history for previous 24 hours

 ConditionsComfort  
Time TempWeatherWind HumidityBarometerVisibility
12:53 AM
Sat, Apr 18
47 °FClear.8 mph52%30.08 "Hg10 mi
11:53 PM
Fri, Apr 17
50 °FClear.9 mph44%30.07 "Hg10 mi
10:53 PM51 °FClear.7 mph44%30.05 "Hg10 mi
9:53 PM54 °FClear.7 mph41%30.04 "Hg10 mi
8:53 PM60 °FSunny.8 mph28%30.01 "Hg10 mi
7:53 PM65 °FSunny.7 mph23%30.00 "Hg10 mi
6:53 PM69 °FSunny.9 mph24%30.01 "Hg10 mi
5:53 PM69 °FSunny.6 mph23%30.01 "Hg10 mi
4:53 PM70 °FSunny.5 mph23%30.02 "Hg10 mi
3:53 PM68 °FSunny.N/A22%30.06 "Hg10 mi
2:53 PM66 °FSunny.6 mph26%30.10 "Hg10 mi
1:53 PM62 °FSunny.3 mph32%30.14 "Hg10 mi
12:53 PM59 °FSunny.No wind36%30.19 "Hg10 mi
11:53 AM53 °FSunny.No wind41%30.23 "Hg10 mi
10:53 AM48 °FSunny.3 mph52%30.26 "Hg10 mi
9:53 AM43 °FSunny.No wind60%30.29 "Hg10 mi
8:53 AM39 °FSunny.3 mph70%30.31 "Hg10 mi
7:53 AM35 °FSunny.6 mph75%30.31 "Hg10 mi
6:53 AM29 °FClear.No wind85%30.31 "Hg10 mi
5:53 AM30 °FClear.No wind82%30.30 "Hg10 mi
4:53 AM33 °FClear.No wind75%30.29 "Hg10 mi
3:53 AM34 °FClear.No wind76%30.29 "Hg10 mi
2:53 AM35 °FClear.No wind72%30.28 "Hg10 mi
Weather by CustomWeather, © 2015

See weather overviewHow to use our weather pages